Regional Weather Roundup
Issued by NWS

Home | Current Version | Previous Version | Graphics & Text | Print | Product List | Glossary On
Versions: 1 2 3 4 5 6 7 8 9 10 11 12 13 14 15 16 17 18 19 20 21 22 23 24 25 26 27 28 29 30 31 32 33 34 35 36 37 38 39 40 41 42 43 44 45 46 47 48 49 50
552
ASUS44 KMEG 271210
RWRTN
TENNESSEE HOURLY STATE WEATHER ROUNDUP
NATIONAL WEATHER SERVICE MEMPHIS TN
700 AM CDT THU JUL 27 2017

TNZ002-004-019-021-049-052-054-088>092-271300-
WEST TENNESSEE

CITY           SKY/WX    TMP DP  RH WIND       PRES   REMARKS
MEMPHIS INTL   PTCLDY    78  74  87 CALM      30.02R
NWS MEMPHIS      N/A     77 N/A N/A MISG        N/A
JACKSON        MOSUNNY   76  74  93 SW6       30.02R
SOMERVILLE       N/A     77  72  83 S5        30.01S
COVINGTON      SUNNY     75  73  94 S3        30.01R
UNION CITY     SUNNY     75  73  94 S6        29.99R
BOLIVAR        SUNNY     77  72  83 CALM      30.02S
PARIS          SUNNY     75  73  94 SW5       30.01R
HUNTINGDON     SUNNY     77  73  88 CALM      30.01R
LEXINGTON      SUNNY     73  72  94 CALM      30.03R FOG
SAVANNAH       SUNNY     73  72  94 CALM      30.03R
$$

TNZ008-025-027-028-033-062-065-066-271300-
NORTH MIDDLE TENNESSEE

CITY           SKY/WX    TMP DP  RH WIND       PRES   REMARKS
NASHVILLE      CLOUDY    78  74  87 S3        30.03S
PORTLAND       SUNNY     77  75  94 SW3       30.02S
CLARKSVILLE    CLOUDY    78  73  84 SW6       30.01R
SMYRNA         CLOUDY    76  74  93 SE3       30.05R
COOKEVILLE     SUNNY     75  73  94 CALM      30.05F
GALLATIN       MOSUNNY   77  75  94 CALM      30.05S
CROSSVILLE     MOSUNNY   73  70  90 VRB3      30.12R
$$

TNZ061-075-076-078-094-096-097-271300-
SOUTH MIDDLE TENNESSEE

CITY           SKY/WX    TMP DP  RH WIND       PRES   REMARKS
FAYETTEVILLE   SUNNY     77  75  94 CALM      30.07R
TULLAHOMA      SUNNY     75  72  88 CALM      30.08S
WINCHESTER     SUNNY     75  73  94 CALM      30.07S
MCMINNVILLE    MOSUNNY   77  77 100 CALM      30.07S
COLUMBIA       SUNNY     75  75 100 CALM      30.03R
SHELBYVILLE    SUNNY     73  73 100 CALM      30.05S FOG
$$

TNZ017-018-042-046-047-271300-
NORTHEAST TENNESSEE

CITY           SKY/WX    TMP DP  RH WIND       PRES   REMARKS
TRI CITIES     MOSUNNY   72  69  90 CALM      30.09S
ELIZABETHTON   PTSUNNY   72  68  88 CALM      30.11R
$$

TNZ012-013-036-069-073-074-271300-
CENTRAL EAST TENNESSEE

CITY           SKY/WX    TMP DP  RH WIND       PRES   REMARKS
KNOXVILLE      CLOUDY    76  72  87 W8        30.06S
OAK RIDGE      CLOUDY    78  70  76 W3        30.09R
GATLINBURG     PTSUNNY   75  70  83 CALM      30.06S
MORRISTOWN     SUNNY     77  72  83 VRB5      30.07S
JACKSBORO      MOSUNNY   73  72  94 CALM      30.10S FOG
$$

TNZ083-085-099-271300-
SOUTHEAST TENNESSEE

CITY           SKY/WX    TMP DP  RH WIND       PRES   REMARKS
CHATTANOOGA    PTSUNNY   76  71  85 CALM      30.08R
DAYTON         SUNNY     75  75 100 CALM      30.07S FOG
$$

SKY/WX REPORTED AS FAIR MEANS FEW OR NO CLOUDS BELOW
12 THOUSAND FEET.





USA.gov is the U.S. government's official web portal to all federal, state and local government web resources and services.